Huntsville, AL

9:15 PM CDT on May 26, 2018 (GMT -0500)
Huntsville International

Weather History for KHSV - May, 2012

Change the Weather History Date:

Tuesday, May 29, 2012

  Actual Average Record
Temperature  
Mean Temperature 81 °F 74 °F  
Max Temperature 93 °F 85 °F 99 °F (1914)
Min Temperature 68 °F 63 °F 46 °F (1984)
Degree Days  
Heating Degree Days 0 0  
Month to date heating degree days 0 25  
Since 1 July heating degree days 2339 2999  
Cooling Degree Days 16 9  
Month to date cooling degree days 256 172  
Year to date cooling degree days 431 244  
Growing Degree Days 31 (Base 50)    
Moisture  
Dew Point 65 °F    
Average Humidity 58    
Maximum Humidity 79    
Minimum Humidity 36    
Precipitation  
Precipitation 0.01 in 0.15 in 3.62 in (1912)
Month to date precipitation 2.79 4.80  
Year to date precipitation 20.64 24.06  
Snow  
Snow 0.00 in - - ()
Month to date snowfall 0.0  
Since 1 July snowfall T  
Snow Depth 0.00 in    
Sea Level Pressure  
Sea Level Pressure 29.86 in    
Wind  
Wind Speed 6 mph (East)    
Max Wind Speed 35 mph    
Max Gust Speed 48 mph    
Visibility 10 miles    
Events Rain    
T = Trace of Precipitation, MM = Missing Value Source: NWS Daily Summary

Daily Weather History Graph

Daily Weather History Graph

Search for Another Location

Airport or City:

Astronomy

May. 29, 2012 Rise Set
Actual Time 5:36 AM CDT 7:53 PM CDT
Civil Twilight 5:07 AM CDT 8:22 PM CDT
Nautical Twilight 4:31 AM CDT 8:57 PM CDT
Astronomical Twilight 3:53 AM CDT 9:36 PM CDT
Moon 1:37 PM CDT (5/29) 1:13 AM CDT (5/29)
Length of Visible Light 15h 15m
Length of Day
14h 17m
First Quarter, 59% of the Moon is Illuminated
May 29
First Quarter
Jun 4
Full
Jun 11
Last Quarter
Jun 19
New
Jun 26
First Quarter

Hourly Weather History & Observations

Time (CDT) Temp. Heat Index Dew Point Humidity Pressure Visibility Wind Dir Wind Speed Gust Speed Precip Events Conditions
12:53 AM 75.9 °F - 64.9 °F 69% 29.88 in 10.0 mi Calm Calm - N/A   Clear
1:53 AM 75.0 °F - 64.9 °F 71% 29.88 in 10.0 mi East 3.5 mph - N/A   Mostly Cloudy
2:53 AM 73.0 °F - 64.9 °F 76% 29.88 in 10.0 mi ESE 8.1 mph - N/A   Partly Cloudy
3:53 AM 72.0 °F - 64.9 °F 78% 29.89 in 10.0 mi ESE 3.5 mph - N/A   Partly Cloudy
4:53 AM 71.1 °F - 64.9 °F 81% 29.91 in 10.0 mi ESE 4.6 mph - N/A   Partly Cloudy
5:53 AM 71.1 °F - 64.9 °F 81% 29.91 in 10.0 mi ESE 4.6 mph - N/A   Partly Cloudy
6:53 AM 73.9 °F - 66.9 °F 79% 29.90 in 10.0 mi SE 6.9 mph - N/A   Partly Cloudy
7:53 AM 78.1 °F - 66.9 °F 68% 29.92 in 10.0 mi SE 10.4 mph - N/A   Scattered Clouds
8:53 AM 80.1 °F 82.3 °F 66.9 °F 64% 29.92 in 10.0 mi SSE 9.2 mph - N/A   Scattered Clouds
9:53 AM 82.0 °F 84.1 °F 66.0 °F 58% 29.91 in 10.0 mi South 6.9 mph - N/A   Mostly Cloudy
10:53 AM 84.9 °F 87.1 °F 66.0 °F 53% 29.90 in 10.0 mi Calm Calm - N/A   Mostly Cloudy
11:53 AM 86.0 °F 88.2 °F 66.0 °F 51% 29.88 in 10.0 mi Variable 3.5 mph - N/A   Mostly Cloudy
12:53 PM 90.0 °F 94.5 °F 69.1 °F 50% 29.87 in 10.0 mi Variable 4.6 mph - N/A   Scattered Clouds
1:53 PM 91.0 °F 94.3 °F 66.9 °F 45% 29.84 in 10.0 mi Calm Calm - N/A   Scattered Clouds
2:53 PM 91.9 °F 94.5 °F 66.0 °F 42% 29.83 in 10.0 mi NW 6.9 mph - N/A   Scattered Clouds
3:53 PM 89.1 °F 91.3 °F 66.0 °F 46% 29.81 in 10.0 mi NW 4.6 mph - N/A   Scattered Clouds
4:53 PM 91.9 °F 92.9 °F 63.0 °F 38% 29.79 in 10.0 mi WNW 5.8 mph - N/A   Scattered Clouds
5:53 PM 91.0 °F 90.9 °F 61.0 °F 36% 29.79 in 10.0 mi WNW 10.4 mph - N/A   Scattered Clouds
6:53 PM 88.0 °F 89.6 °F 64.9 °F 46% 29.79 in 10.0 mi NW 5.8 mph - N/A   Scattered Clouds
7:53 PM 82.9 °F 84.6 °F 64.9 °F 54% 29.81 in 10.0 mi NW 6.9 mph - N/A   Scattered Clouds
8:29 PM 80.6 °F 81.5 °F 60.8 °F 51% 29.88 in 7.0 mi NNW 28.8 mph 48.3 mph N/A   Squalls
8:53 PM 73.0 °F - 61.0 °F 66% 29.87 in 9.0 mi North 12.7 mph 29.9 mph 0.00 in Rain Light Rain
9:53 PM 70.0 °F - 62.1 °F 76% 29.84 in 10.0 mi ESE 9.2 mph - 0.01 in Rain Light Rain
10:53 PM 69.1 °F - 62.1 °F 78% 29.83 in 10.0 mi ENE 5.8 mph - 0.00 in   Mostly Cloudy
11:53 PM 70.0 °F - 63.0 °F 78% 29.85 in 10.0 mi Calm Calm - N/A   Mostly Cloudy